OSCAR 7 (AO-7) 1 07530U 74089B 26264.28807289 -.00000037 00000+0 56963-4 0 9990 2 07530 101.9920 278.5390 0011987 309.0150 62.1343 12.53699625372567 PHASE 3B (AO-10) 1 14129U 83058B 26263.04235857 -.00000060 00000+0 00000+0 0 9999 2 14129 25.9788 204.0605 5980330 141.6651 281.5604 2.05869937297448 UOSAT 2 (UO-11) 1 14781U 84021B 26264.19600994 .00000984 00000+0 10516-3 0 9990 2 14781 97.8183 228.7713 0006479 217.9790 142.0972 14.91003438271435 LUSAT (LO-19) 1 20442U 90005G 26264.04328088 .00000042 00000+0 31816-4 0 9997 2 20442 98.8819 288.4751 0010490 286.4981 73.5049 14.34144862916139 EYESAT A (AO-27) 1 22825U 93061C 26264.14444221 .00000027 00000+0 27180-4 0 9990 2 22825 98.6788 331.4782 0008539 171.4513 188.6816 14.30962225720722 ITAMSAT (IO-26) 1 22826U 93061D 26264.16509149 .00000032 00000+0 28934-4 0 9998 2 22826 98.6735 331.4263 0009377 155.3824 204.7808 14.31391230721046 RADIO ROSTO (RS15) 1 23439U 94085A 26264.25492049 -.00000040 00000+0 82761-4 0 9994 2 23439 64.8153 147.8474 0159299 346.6416 13.0315 11.27583946306738 JAS-2 (FO-29) 1 24278U 96046B 26263.98065640 .00000003 00000+0 39837-4 0 9991 2 24278 98.5163 99.7186 0349390 207.6942 150.5202 13.53278414486129 TECHSAT 1B (GO-32) 1 25397U 98043D 26264.22649603 .00000027 00000+0 32049-4 0 9992 2 25397 99.0160 259.4469 0000700 356.5801 3.5372 14.24443582465009 ISS (ZARYA) 1 25544U 98067A 26264.17466374 .00007601 00000+0 14494-3 0 9996 2 25544 51.6309 185.0320 0004777 163.5850 196.5294 15.49206805586632 PCSAT (NO-44) 1 26931U 01043C 26263.98617166 .00000035 00000+0 43940-4 0 9993 2 26931 67.0532 356.4854 0005847 273.0989 86.9444 14.31985191304164 SAUDISAT 1C (SO-50) 1 27607U 02058C 26264.17312219 .00000541 00000+0 81625-4 0 9998 2 27607 64.5524 191.9652 0071614 244.8202 114.5466 14.83221192278696 CUTE-1 (CO-55) 1 27844U 03031E 26264.27513155 .00000165 00000+0 90365-4 0 9999 2 27844 98.6774 271.6428 0008385 266.4617 93.5603 14.24383809205357 CUBESAT XI-IV (CO-57) 1 27848U 03031J 26263.53895000 .00000140 00000+0 80630-4 0 9990 2 27848 98.6806 270.5513 0008368 290.6978 69.3303 14.23661922204946 MOZHAETS 4 (RS22) 1 27939U 03042A 26264.30875157 .00000377 00000+0 66232-4 0 9994 2 27939 98.3485 91.4133 0010684 330.1700 154.8869 14.73606023229706 CUBESAT XI-V 1 28895U 05043F 26263.38442409 .00000829 00000+0 13773-3 0 9999 2 28895 98.3108 61.0906 0012788 262.9742 97.0011 14.72835614115762 CUTE-1.7+APD II (CO-65) 1 32785U 08021C 26264.14632219 .00002961 00000+0 18520-3 0 9990 2 32785 97.8388 247.6718 0010358 66.9635 293.2685 15.10207648999676 SEEDS II (CO-66) 1 32791U 08021J 26263.55189160 .00013623 00000+0 39424-3 0 9996 2 32791 97.7575 266.2526 0002302 30.1974 329.9401 15.35729789 1908 YUBILEINY (RS30) 1 32953U 08025A 26264.26978427 .00000017 00000+0 47379-4 0 9993 2 32953 82.5014 295.6813 0020731 101.8170 258.5237 12.43182926831630 KKS-1 (KISEKI) 1 33499U 09002H 26264.25420739 .00000806 00000+0 10518-3 0 9992 2 33499 98.1165 188.2148 0007575 349.6368 10.4688 14.83325296950436 SWISSCUBE 1 35932U 09051B 26264.22145653 .00000572 00000+0 12232-3 0 9991 2 35932 98.3943 173.7439 0005441 277.8345 82.2238 14.62631921903196 BEESAT-1 1 35933U 09051C 26263.66568214 .00000475 00000+0 10495-3 0 9992 2 35933 98.3867 172.6114 0004159 299.6775 60.4011 14.61845943903135 ITUPSAT1 1 35935U 09051E 26263.19243246 .00000456 00000+0 10381-3 0 9990 2 35935 98.3947 171.2198 0006545 311.8090 48.2551 14.60556516902609 XIWANG-1 (HOPE-1) 1 36122U 09072B 26264.30665666 .00000241 00000+0 74748-3 0 9999 2 36122 100.4130 216.6386 0007863 19.3025 340.8385 13.16442424805657 O/OREOS (USA 219) 1 37224U 10062C 26264.28683023 .00001363 00000+0 13329-3 0 9992 2 37224 71.9690 222.5947 0016404 245.6520 114.2938 14.94054600130995 JUGNU 1 37839U 11058B 26263.95043899 .00000373 00000+0 55608-4 0 9991 2 37839 19.9602 86.6124 0018601 54.1330 107.7482 14.13799431772599 SRMSAT 1 37841U 11058D 26264.23349410 .00000348 00000+0 44768-4 0 9991 2 37841 19.9709 198.1101 0011832 180.0640 326.3012 14.11593554771409 STRAND-1 1 39090U 13009E 26263.99313881 .00000160 00000+0 68094-4 0 9992 2 39090 98.3970 81.9070 0007704 310.0049 50.0461 14.37208962710825 ZACUBE-1 (TSHEPISOSAT) 1 39417U 13066B 26263.63935404 .00003321 00000+0 25530-3 0 9999 2 39417 97.8156 226.4791 0038914 293.4880 66.2256 15.01849400695056 GOMX-1 1 39430U 13066Q 26264.25768020 .00001187 00000+0 18282-3 0 9995 2 39430 97.6438 98.6656 0128970 128.2268 233.0632 14.69711958684024 CUBEBUG-2 (LO-74) 1 39440U 13066AA 26264.30367196 .00002011 00000+0 18665-3 0 9993 2 39440 97.8991 213.7675 0058519 68.9901 291.7565 14.94299957691344 FUNCUBE-1 (AO-73) 1 39444U 13066AE 26264.20450628 .00004785 00000+0 28963-3 0 9991 2 39444 97.8392 237.7962 0033779 235.1218 124.6834 15.10653388694154 UWE-3 1 39446U 13066AG 26263.51239731 .00003063 00000+0 26126-3 0 9993 2 39446 97.8816 220.3134 0048715 4.1422 356.0193 14.97594990691842 UNISAT-6 1 40012U 14033C 26264.13131773 .00001555 00000+0 16953-3 0 9996 2 40012 97.8005 55.2580 0045905 111.5513 249.0606 14.88651043660439 QB50P1 1 40025U 14033R 26263.54086344 .00005055 00000+0 24161-3 0 9996 2 40025 98.0974 281.4719 0006934 255.8461 104.2002 15.19508198667505 LILACSAT-2 1 40908U 15049K 26264.27979429 .00014041 00000+0 21497-3 0 9994 2 40908 97.4558 304.9339 0004631 253.5112 106.5633 15.54464480610669 FOX-1A (AO-85) 1 40967U 15058D 26264.18713061 .00000998 00000+0 98263-4 0 9999 2 40967 64.7754 340.5259 0138944 20.7305 339.9365 14.91404878127885 CAS-2T & KS-1Q 1 41847U 16066G 26264.22680710 .00000831 00000+0 12550-3 0 9996 2 41847 98.3748 338.8543 0340887 197.9120 160.9816 14.44851980518669 RADFXSAT (FOX-1B) 1 43017U 17073E 26263.88554801 .00005833 00000+0 24855-3 0 9996 2 43017 97.4549 129.1458 0147072 358.5223 1.5554 15.13986341479869 DIWATA-2B 1 43678U 18084H 26264.25645046 .00000908 00000+0 76748-4 0 9993 2 43678 98.1174 104.6942 0012041 206.5040 153.5569 15.00740810430626 ES'HAIL 2 1 43700U 18090A 26264.06648215 .00000140 00000+0 00000+0 0 9997 2 43700 0.0012 161.2484 0001170 5.3041 243.1178 1.00271313 28630 FOX-1CLIFF (AO-95) 1 43770U 18099N 26264.10436986 .00007425 00000+0 27002-3 0 9996 2 43770 97.4286 324.0680 0008376 19.5882 340.5677 15.28515537427860 ITASAT 1 43786U 18099AE 26263.89849579 .00004104 00000+0 19293-3 0 9998 2 43786 97.3935 313.5167 0012679 25.4875 334.6983 15.20074721427444 JY1SAT (JO-97) 1 43803U 18099AX 26263.91760663 .00011939 00000+0 33774-3 0 9991 2 43803 97.4029 327.2269 0003809 289.5391 70.5441 15.36459109428311 UWE-4 1 43880U 18111E 26264.27204069 .00030221 00000+0 49985-3 0 9990 2 43880 97.5811 197.5096 0005520 5.2814 354.8496 15.52151926425653 TIANYAN 01 1 44881U 19093C 26264.29764747 .00001010 00000+0 11964-3 0 9998 2 44881 97.7445 334.1482 0014675 126.5639 233.6930 14.86641808365694 RS-44 & BREEZE-KM R/B 1 44909U 19096E 26264.00939365 .00000029 00000+0 81504-4 0 9998 2 44909 82.5167 276.0315 0216341 280.4022 77.2762 12.79749428314604 SALSAT 1 46495U 20068K 26264.25927921 .00005106 00000+0 17325-3 0 9993 2 46495 97.8892 273.2830 0008444 335.3209 24.7626 15.30990001330059 XW-3 (CAS-9) 1 50466U 21131B 26264.26705811 .00000236 00000+0 86474-4 0 9992 2 50466 98.4966 356.1327 0004494 155.0535 205.0872 14.41428919248952 GREENCUBE (IO-117) 1 53109U 22080E 26263.90064936 -.00000003 00000+0 00000+0 0 9998 2 53109 70.1205 264.9513 0009215 269.0281 90.9323 6.42583812 98215 UMKA 1 (RS40S) 1 57172U 23091G 26264.25749141 .00003819 00000+0 17136-3 0 9991 2 57172 97.4952 322.5938 0013550 138.9854 221.2403 15.21727059178610 CUBESX-HSE 3 (RS42S) 1 57178U 23091N 26264.23533115 .00009054 00000+0 28315-3 0 9995 2 57178 97.4997 331.1336 0011475 109.7148 250.5333 15.33316404179135 MONITOR-3 (RS58S) 1 57180U 23091Q 26264.22416198 .00006970 00000+0 24598-3 0 9991 2 57180 97.4987 328.4382 0012514 118.0126 242.2381 15.29488280178969 MONITOR-4 (RS57S) 1 57182U 23091S 26264.19764469 .00007067 00000+0 24869-3 0 9995 2 57182 97.4982 328.3881 0012501 118.3292 241.9211 15.29579204178967 MONITOR-2 (RS39S) 1 57184U 23091U 26264.27342153 .00002583 00000+0 12424-3 0 9990 2 57184 97.4973 321.9301 0012154 132.9579 227.2677 15.19640253178548 SVYATOBOR 1 (RS60S) 1 57187U 23091X 26264.23611471 .00005721 00000+0 21190-3 0 9998 2 57187 97.4994 328.6290 0010502 111.6149 248.6210 15.28003727178973 VIZARD-METEO (RS38S) 1 57189U 23091Z 26264.27923894 .00012742 00000+0 33396-3 0 9991 2 57189 97.5003 335.8378 0008002 89.6057 270.6105 15.38790892179457 POLYTECH-UNIVERSE 3 (R*) 1 57191U 23091AB 26264.28711371 .00003056 00000+0 14530-3 0 9997 2 57191 97.4948 321.4489 0016009 149.6278 210.5887 15.19860605178547 UTMN 2 (RS27S) 1 57203U 23091AP 26264.26711508 .00009119 00000+0 27825-3 0 9998 2 57203 97.4996 332.9154 0008837 98.5212 261.7032 15.34120782179262 KUZGTU 1 (RS47S) 1 57217U 23091AV 26264.25221770 .00008446 00000+0 27738-3 0 9994 2 57217 97.4968 329.7926 0011764 113.7889 246.4587 15.31764539179075 SONATE-2 1 59112U 24043Q 26263.18449285 .00045310 00000+0 43676-3 0 9992 2 59112 97.5624 60.0165 0005401 207.1016 152.9962 15.66376204142728 MESAT1 1 60209U 24125G 26264.07689203 .00089113 00000+0 55687-3 0 9991 2 60209 97.2098 124.5253 0006405 194.5418 165.5665 15.76574807124600 GRBBETA 1 60237U 24128C 26263.37380526 .00002088 00000+0 15133-3 0 9991 2 60237 61.9884 242.1526 0026667 155.5743 204.6621 15.07199001120619 OOV-CUBE (TUBSAT-30) 1 60240U 24128F 26263.52790221 .00001109 00000+0 96610-4 0 9992 2 60240 61.9928 253.0346 0031098 155.9884 204.2666 15.03110378120449 COLIBRI-S (RS67S) 1 61746U 24199M 26264.27637112 .00017970 00000+0 30465-3 0 9992 2 61746 97.2794 139.1815 0005607 299.7768 60.2927 15.51557624152294 HORS 3 (RS81S) 1 61753U 24199U 26264.27890992 .00038730 00000+0 44323-3 0 9992 2 61753 97.2793 142.4266 0002355 292.0742 68.0265 15.62047258152529 HORS 4 (RS82S) 1 61754U 24199V 26264.24047864 .00062249 00000+0 51004-3 0 9998 2 61754 97.2721 144.4231 0001300 241.6492 118.4640 15.70322213152664 SIT-2086 1 61764U 24199AF 26264.24507450 .00036450 00000+0 44889-3 0 9999 2 61764 97.2748 142.5333 0003002 257.7670 102.3251 15.60139053149374 ALTAIR (RS65S) 1 61779U 24199AW 26264.28361894 .00005946 00000+0 15782-3 0 9995 2 61779 97.2871 133.0330 0011087 327.8445 32.2123 15.38613794151882 ASRTU-1 (AO-123) 1 61781U 24199AY 26264.23684288 .00005455 00000+0 15304-3 0 9993 2 61781 97.2839 132.0467 0012380 330.8722 29.1831 15.36918585148676 SAMSAT-IONOSPHERE (RS7*) 1 61784U 24199BB 26264.27309157 .00058873 00000+0 54591-3 0 9992 2 61784 97.2747 142.9697 0003578 281.2321 78.8538 15.67296665152565 RTU MIREA 1 (RS51S) 1 61785U 24199BC 26264.24962104 .00090293 00000+0 61857-3 0 9992 2 61785 97.2717 144.4851 0002222 256.0747 104.0271 15.74474884149515 LASARSAT 1 62391U 24247Q 26262.82201670 .00033498 00000+0 53930-3 0 9993 2 62391 44.9718 88.0673 0009767 232.1281 127.8728 15.52377278 97992 CROCUBE 1 62394U 24247T 26263.89520826 .00038917 00000+0 55900-3 0 9991 2 62394 44.9695 77.3471 0010500 248.1402 111.8375 15.55439305 98215 TEVEL2-4 1 63213U 25052D 26264.19547508 .00014445 00000+0 39160-3 0 9997 2 63213 97.3755 160.8905 0004567 107.0812 253.0933 15.37732335 84852 TEVEL2-5 1 63214U 25052E 26264.16332783 .00013508 00000+0 36914-3 0 9995 2 63214 97.3755 160.7754 0004410 108.5467 251.6257 15.37502263 84840 TEVEL2-6 1 63215U 25052F 26263.98252351 .00013266 00000+0 36301-3 0 9998 2 63215 97.3757 160.5791 0004311 109.4815 250.6896 15.37465495 84819 TEVEL2-1 1 63217U 25052H 26264.17862780 .00013028 00000+0 36403-3 0 9994 2 63217 97.3730 160.2770 0004317 118.2199 241.9482 15.36819113 84829 TEVEL2-3 1 63218U 25052J 26263.97375170 .00012841 00000+0 35803-3 0 9999 2 63218 97.3734 160.1086 0004064 117.0378 243.1282 15.36891154 84791 TEVEL2-2 1 63219U 25052K 26263.98285148 .00012806 00000+0 35778-3 0 9998 2 63219 97.3731 160.0853 0004333 118.9163 241.2517 15.36827469 84799 OTP-2 1 63235U 25052AB 26263.65988639 .00005156 00000+0 20872-3 0 9994 2 63235 97.3719 154.6685 0006088 168.7516 191.3859 15.25112179 84415 TEVEL2-9 1 63237U 25052AD 26263.96118710 .00011070 00000+0 33239-3 0 9998 2 63237 97.3790 159.2132 0006886 142.7798 217.3923 15.34584512 84701 TEVEL2-7 1 63238U 25052AE 26263.63140292 .00011240 00000+0 34148-3 0 9992 2 63238 97.3794 158.7540 0006768 145.3032 214.8654 15.34209101 84646 TEVEL2-8 1 63239U 25052AF 26263.64044394 .00011438 00000+0 34755-3 0 9993 2 63239 97.3793 158.7377 0006840 144.1187 216.0517 15.34199195 84646 INNOSAT 16 (RS92S7) 1 64878U 25155C 26264.26779370 .00003878 00000+0 15191-3 0 9997 2 64878 97.4688 231.2162 0009506 196.6635 163.4292 15.26362836 95328 GEOSCAN 6 (RS92S6) 1 64879U 25155D 26264.25911681 .00007136 00000+0 23474-3 0 9994 2 64879 97.4672 233.3620 0007208 179.5656 180.5593 15.31812959 95465 GEOSCAN 1 (RS92S1) 1 64880U 25155E 26264.21938882 .00007793 00000+0 25023-3 0 9995 2 64880 97.4668 233.5637 0007095 178.6904 181.4358 15.32556898 95470 239ALFEROV (RS61S) 1 64881U 25155F 26264.22865600 .00010366 00000+0 30397-3 0 9994 2 64881 97.4661 234.4986 0006733 174.9009 185.2304 15.35356230 95535 GEOSCAN 2 (RS92S2) 1 64890U 25155Q 26264.26243843 .00008049 00000+0 25640-3 0 9997 2 64890 97.4667 233.7959 0007044 164.1140 196.0324 15.32802695 95491 GEOSCAN 5 (RS92S5) 1 64891U 25155R 26264.26408066 .00011161 00000+0 32411-3 0 9991 2 64891 97.4655 234.7068 0005587 175.8603 184.2688 15.35648788 95557 GEOSCAN 4 (RS92S4) 1 64892U 25155S 26264.23715970 .00010618 00000+0 30655-3 0 9998 2 64892 97.4661 234.7606 0005468 174.6727 185.4576 15.35845772 95556 GEOSCAN 3 (RS92S3) 1 64893U 25155T 26264.22467290 .00013713 00000+0 36316-3 0 9996 2 64893 97.4645 235.4981 0005465 171.3350 188.7990 15.38467867 95606 INNOSAT 3 (RS92S0) 1 64894U 25155U 26264.21711733 .00039538 00000+0 67807-3 0 9992 2 64894 97.4584 238.5704 0005394 150.4145 209.7413 15.51078184 95819 KNACKSAT-2 1 67683U 98067XZ 26264.16486015 .00057537 00000+0 47720-3 0 9990 2 67683 51.6241 168.4295 0008318 189.2772 170.8072 15.69595208 35308 MARINA 1 69920U 26156BD 26264.19016089 .00001373 00000+0 14028-3 0 9991 2 69920 97.7439 163.3940 0005849 262.7202 97.3352 14.92181300 11314